DW8248 Weather Reports


time (UTC)temp
F
wind
direction
speed
knots
gust
knots
rain 1hr
in
rain 24hr
in
rain mn
in
humidity
%
barometer
mb
20260505185127 81 48 4.3 9.6 0.00 0.00 0.00 60 1016.1
20260505184115 80 59 5.2 9.6 0.00 0.00 0.00 60 1016.2
20260505183120 80 60 4.3 8.7 0.00 0.00 0.00 62 1016.3
20260505182122 79 87 5.2 8.7 0.00 0.00 0.00 63 1016.3
20260505181117 79 61 5.2 8.7 0.00 0.00 0.00 62 1016.4
20260505180048 80 90 4.3 11.3 0.00 0.00 0.00 59 1016.4
20260505175026 80 64 5.2 10.4 0.00 0.00 0.00 59 1016.5
20260505172902 80 16 5.2 10.4 0.00 0.00 0.00 62 1016.5
20260505171858 79 68 4.3 10.4 0.00 0.00 0.00 64 1016.5
20260505170834 79 114 5.2 10.4 0.00 0.00 0.00 61 1016.6
20260505165824 80 86 5.2 11.3 0.00 0.00 0.00 60 1016.6
20260505164840 80 67 5.2 11.3 0.00 0.00 0.00 61 1016.5
20260505163809 80 88 4.3 10.4 0.00 0.00 0.00 62 1016.5
20260505162750 80 92 4.3 10.4 0.00 0.00 0.00 62 1016.7
20260505161724 79 59 5.2 10.4 0.00 0.00 0.00 62 1016.6
20260505160733 79 144 6.1 10.4 0.00 0.00 0.00 64 1016.6
20260505153352 79 101 5.2 11.3 0.00 0.00 0.00 62 1016.6
20260505152316 79 98 5.2 10.4 0.00 0.00 0.00 64 1016.5
20260505151301 79 77 5.2 12.2 0.00 0.00 0.00 66 1016.4
20260505150257 79 95 6.1 12.2 0.00 0.00 0.00 66 1016.3
20260505124709 77 115 5.2 11.3 0.00 0.00 0.00 68 1015.7
20260505123637 77 91 5.2 9.6 0.00 0.00 0.00 68 1015.6
20260505122627 77 76 5.2 9.6 0.00 0.00 0.00 68 1015.8
20260505121638 77 107 4.3 12.2 0.00 0.00 0.00 69 1016.1
20260505120658 77 76 5.2 12.2 0.00 0.00 0.00 69 1016.0
20260505115710 76 71 3.5 12.2 0.00 0.00 0.00 69 1015.7
20260505112355 75 115 4.3 10.4 0.00 0.00 0.00 69 1015.3
20260505111355 75 73 4.3 10.4 0.00 0.00 0.00 70 1015.0
20260505110357 75 75 3.5 8.7 0.00 0.00 0.00 69 1014.8
20260505100134 75 105 3.5 7.0 0.00 0.00 0.00 70 1014.4
20260505095152 75 128 2.6 7.0 0.00 0.00 0.00 70 1014.3
20260505094125 75 78 4.3 8.7 0.00 0.00 0.00 70 1014.2
20260505093104 75 48 3.5 8.7 0.00 0.00 0.00 69 1014.2
20260505084824 75 108 3.5 7.8 0.00 0.00 0.00 70 1013.9
20260505083751 75 67 2.6 6.1 0.00 0.00 0.00 70 1013.9
20260505082757 75 98 3.5 7.8 0.00 0.00 0.00 70 1013.9
20260505081801 75 115 2.6 8.7 0.00 0.00 0.00 70 1013.7
20260505080747 75 102 3.5 8.7 0.00 0.00 0.00 69 1014.0
20260505075745 75 105 2.6 8.7 0.00 0.00 0.00 71 1013.9
20260505073607 75 96 4.3 8.7 0.00 0.00 0.00 70 1014.0
20260505072622 75 107 3.5 7.8 0.00 0.00 0.00 70 1014.2
20260505071602 75 93 3.5 7.8 0.00 0.00 0.00 70 1014.3
20260505070608 75 111 2.6 9.6 0.00 0.00 0.00 69 1014.2
20260505065542 75 123 3.5 9.6 0.00 0.00 0.00 70 1014.3
20260505064531 75 129 4.3 9.6 0.00 0.00 0.00 71 1014.3
20260505063456 75 118 3.5 7.8 0.00 0.00 0.00 70 1014.4
20260505062419 75 101 3.5 9.6 0.00 0.00 0.00 70 1014.7
20260505060228 75 75 3.5 8.7 0.00 0.00 0.00 70 1014.7
20260505055221 75 94 3.5 8.7 0.00 0.00 0.00 70 1014.9
20260505054227 75 67 4.3 9.6 0.00 0.00 0.00 70 1015.2
20260505052053 75 69 4.3 9.6 0.00 0.00 0.00 71 1015.3
20260505040553 75 85 5.2 11.3 0.00 0.00 0.00 71 1015.6
20260505035547 75 69 5.2 13.0 0.00 0.00 0.00 71 1015.7
20260505034539 75 100 6.1 13.0 0.00 0.00 0.00 71 1015.6
20260505033503 75 71 6.1 12.2 0.00 0.00 0.00 71 1015.7
20260505030133 75 98 6.1 14.8 0.00 0.00 0.00 72 1015.9
20260505025122 75 103 6.1 14.8 0.00 0.00 0.00 72 1016.0
20260505024053 75 68 5.2 11.3 0.00 0.00 0.00 72 1015.9
20260505023108 75 51 5.2 11.3 0.00 0.00 0.00 72 1015.9
20260505021010 75 87 6.1 13.0 0.00 0.00 0.00 71 1015.9
20260505015947 75 108 6.1 12.2 0.00 0.00 0.00 71 1015.8
20260505014955 75 96 6.1 11.3 0.00 0.00 0.00 71 1015.8
20260505013918 75 88 5.2 10.4 0.00 0.00 0.00 71 1015.8
20260505012931 75 69 4.3 10.4 0.00 0.00 0.00 71 1015.9
20260505011909 75 32 5.2 10.4 0.00 0.00 0.00 70 1015.9
20260505004542 75 84 5.2 12.2 0.00 0.00 0.00 70 1015.1
20260505003556 75 33 5.2 10.4 0.00 0.00 0.00 70 1015.2
20260505002525 75 77 4.3 10.4 0.00 0.00 0.00 70 1015.3
20260505001524 75 84 6.1 12.2 0.00 0.00 0.00 70 1015.2
20260505000516 75 69 5.2 12.2 0.00 0.00 0.00 70 1015.0
20260504235536 75 80 5.2 13.9 0.00 0.00 0.00 69 1014.9
20260504234527 75 45 6.1 13.9 0.00 0.00 0.00 70 1014.8
20260504233531 75 40 6.1 12.2 0.00 0.00 0.00 70 1014.7
20260504232503 75 94 5.2 13.0 0.00 0.00 0.00 70 1014.9
20260504231522 75 80 5.2 13.0 0.00 0.00 0.00 69 1014.8
20260504230522 75 67 6.1 12.2 0.00 0.00 0.00 70 1014.9
20260504225510 75 94 6.1 12.2 0.00 0.00 0.00 70 1014.9
20260504224442 75 98 6.1 12.2 0.00 0.00 0.00 69 1014.8
20260504223427 75 61 5.2 12.2 0.00 0.00 0.00 69 1014.7
20260504222412 76 68 6.1 13.0 0.00 0.00 0.00 68 1014.7
20260504221350 76 94 6.1 13.9 0.00 0.00 0.00 68 1014.7
20260504220402 76 77 5.2 14.8 0.00 0.00 0.00 68 1014.7
20260504215346 76 104 6.1 14.8 0.00 0.00 0.00 69 1014.8
20260504214351 76 68 6.1 13.9 0.00 0.00 0.00 69 1014.8
20260504212223 76 59 6.1 14.8 0.00 0.00 0.00 68 1015.0
20260504210042 76 96 6.1 13.0 0.00 0.00 0.00 67 1015.1
20260504205052 77 49 7.0 13.0 0.00 0.00 0.00 66 1015.1
20260504204043 77 79 7.0 13.9 0.00 0.00 0.00 66 1015.1
20260504201913 76 102 7.0 14.8 0.00 0.00 0.00 66 1015.3
20260504195652 76 38 6.1 13.0 0.00 0.00 0.00 67 1015.3
20260504194631 76 65 7.0 13.0 0.00 0.00 0.00 66 1015.5
20260504193628 76 51 6.1 14.8 0.00 0.00 0.00 67 1015.8
20260504192634 77 39 7.0 14.8 0.00 0.00 0.00 66 1016.0
20260504191613 77 51 7.0 13.0 0.00 0.00 0.00 65 1016.0
20260504190538 78 65 7.8 16.5 0.00 0.00 0.00 64 1016.1